User: anonymous   Login
Location: Unspecified
(0.0000°N, 0.0000°E)
Time: 23:35:04
(UTC+00:00)
Language:

USA 169 - Orbit

View from above orbital plane
View from above orbital plane
View from above satellite
View from above satellite

Ground track
Ground track

The orbit data is extracted from the following two-line orbital elements,

1 27711U 03012A   18124.85350926 0.00000000  00000-0  00000-0 0    01
2 27711   7.8956  50.0208 0007962 194.4851 165.5042  1.00270000    09
Epoch (UTC): 04 May 2018 20:29:03
Eccentricity: 0.0007962
inclination: 7.8956°
perigee height: 35753 km
apogee height: 35820 km
right ascension of ascending node: 50.0208°
argument of perigee: 194.4851°
revolutions per day: 1.00270000
mean anomaly at epoch: 165.5042°
orbit number at epoch: 0

The dashed part of the orbit path shows where the satellite is in the earth's shadow,  

DLR